[[{"header":{"parameterUnit":"m.s-1","parameterCategory":1,"la1":30.2991,"la2":30.254,"lo1":-89.0895,"lo2":-89.0444,"dy":0.0017,"dx":0.0017,"nx":28,"ny":28,"refTime":"2025-08-14T21:00:00:Z","depth":0,"parameterNumber":2,"parameterNumberName":"U-component_of_WINDS"},"data":[0,0,0,0,0,0,0,0,0,0,0,0,0,0,0,0,0,0,0,0,0,0,0,0,0,0,0,0,0,0,0,0,0,0,0,0,0,0,0,0,0,0,0,0,0,0,0,0,0,0,0,0,0,0,0,0,0,0,0.9016,0.9017,0,0.9133,0.9134,0.9136,0.9189,0.9188,0.9188,0.9188,0.9312,0.9316,0.9319,0,0,0,0,0,0,0,0,0,0,0,0,0,0.8844,0.8847,0.9016,0.9018,0.9019,0.9133,0.9134,0.9136,0.9189,0.9188,0.9188,0.9188,0.9311,0.9315,0.9319,0,0,0,0,0,0,0,0,0,0,0,0,0,0.8936,0.8848,0.9016,0.9059,0.9064,0.9132,0.9134,0.9136,0.9189,0.9188,0.9188,0.9188,0.931,0.9315,0.932,0.9355,0,0,0.9335,0.9338,0,0,0,0,0,0,0,0,0.893,0.8942,0.9051,0.9056,0.9062,0.9146,0.9119,0.921,0.9189,0.9141,0.9188,0.9188,0.9257,0.9267,0.9289,0.9361,0.9367,0.9336,0.9339,0.9341,0.9343,0,0,0,0,0,0,0,0.8924,0.8937,0.9062,0.9053,0.9059,0.9074,0.9087,0.9137,0.9199,0.9146,0.915,0.9162,0.926,0.9284,0.9293,0.9368,0.9336,0.934,0.9344,0.9346,0.9477,0.9478,0,0,0,0,0,0,0.891,0.8931,0.9059,0.9066,0.8994,0.9077,0.9092,0.9119,0.9199,0.9211,0.9163,0.9165,0.9275,0.9286,0.9297,0.9345,0.9341,0.9346,0.9349,0.9477,0.9477,0.9478,0,0,0,0,0,0,0.8906,0.8921,0.9054,0.9,0.9018,0.908,0.9111,0.9122,0.9145,0.9212,0.9223,0.9175,0.9276,0.929,0.9341,0.935,0.9348,0.9353,0.9476,0.9477,0.9477,0.944,0,0,0,0,0,0,0.8901,0.8919,0.8932,0.9,0.9021,0.9094,0.9112,0.9124,0.9154,0.9157,0.9226,0.9238,0.9277,0.9333,0.9346,0.9357,0.9357,0.9476,0.9476,0.9477,0.9441,0.9439,0.9438,0,0,0,0,0,0.8894,0.8917,0.8932,0.8947,0.9038,0.9094,0.9106,0.9149,0.9154,0.9169,0.9211,0.9236,0.9347,0.9337,0.9352,0.9365,0.9475,0.9476,0.9477,0.9441,0.9439,0.9438,0,0,0,0,0,0,0.885,0.8927,0.8944,0.899,0.9035,0.9103,0.9122,0.9146,0.9192,0.9194,0.9246,0.9262,0.9308,0.9342,0.933,0.9405,0.9413,0.9417,0.9381,0.938,0.9378,0.9369,0.9361,0,0,0,0,0,0.8845,0.8883,0.8949,0.8983,0.9004,0.9059,0.9086,0.9115,0.9164,0.9184,0.923,0.9279,0.9325,0.9354,0.94,0.9446,0.9462,0.9462,0.9461,0.946,0.9463,0.9491,0.9492,0.9481,0.9481,0.9481,0,0,0.8837,0.8883,0.8904,0.8975,0.9014,0.9053,0.9075,0.9116,0.9146,0.9191,0.9241,0.9277,0.9335,0.9383,0.9407,0.9413,0.9469,0.9461,0.9459,0.9463,0.9492,0.9493,0.9493,0.9481,0.9481,0.9481,0,0,0.8841,0.8879,0.8912,0.895,0.9007,0.9044,0.9052,0.9117,0.9142,0.9193,0.9227,0.9265,0.9343,0.9383,0.9413,0.9433,0.9458,0.9447,0.944,0.9467,0.9468,0.9469,0.9477,0.9479,0.945,0.945,0.945,0,0.8823,0.8882,0.8926,0.8965,0.8996,0.9037,0.9071,0.9106,0.9177,0.9198,0.9203,0.9302,0.9344,0.9403,0.9407,0.9431,0.9442,0.9439,0.9464,0.9465,0.9467,0.9475,0.9478,0.9448,0.9448,0.9448,0.9448,0,0.8858,0.8899,0.8919,0.8984,0.9017,0.9053,0.9104,0.9133,0.9159,0.9196,0.9248,0.93,0.9357,0.9373,0.94,0.9437,0.9439,0.9453,0.9463,0.9465,0.9474,0.9478,0.9445,0.9446,0.9447,0.9447,0,0,0.8837,0.8926,0.8933,0.8963,0.903,0.9064,0.9103,0.9158,0.9182,0.9229,0.9264,0.9329,0.9343,0.9378,0.941,0.9433,0.9446,0.9445,0.9447,0.9444,0.9491,0.948,0.9483,0.9463,0.9464,0.9464,0.9486,0,0.8851,0.8921,0.8962,0.9016,0.9055,0.9095,0.9129,0.9175,0.921,0.925,0.929,0.9335,0.935,0.9371,0.9396,0.9439,0.9457,0.9438,0.9498,0.9499,0.9482,0.9487,0.9475,0.9494,0.949,0.9491,0.9491,0,0.8876,0.8921,0.8979,0.9042,0.906,0.909,0.9144,0.9181,0.9234,0.9258,0.9297,0.9329,0.9373,0.9379,0.9442,0.9429,0.9456,0.9481,0.9483,0.949,0.9495,0.9495,0.95,0.9503,0.9497,0.9496,0.9496,0,0.8856,0.8931,0.8976,0.9001,0.9075,0.9096,0.9128,0.9181,0.9211,0.9259,0.928,0.9333,0.9362,0.9403,0.9449,0.9449,0.9508,0.9517,0.9531,0.9529,0.9542,0.954,0.9551,0.9558,0.9558,0.9558,0.9558,0,0.8867,0.8901,0.8968,0.8995,0.9035,0.9082,0.9121,0.9157,0.9204,0.924,0.9278,0.9312,0.937,0.9411,0.9448,0.9495,0.9508,0.953,0.9539,0.9527,0.9524,0.9545,0.9545,0.9559,0.9558,0.9558,0.9558,0,0.8851,0.8897,0.8948,0.9015,0.9032,0.9059,0.9116,0.9145,0.9183,0.9228,0.9242,0.9301,0.9352,0.9401,0.947,0.9494,0.9541,0.9554,0.9523,0.9528,0.9539,0.9537,0.9564,0.9571,0.9572,0.9572,0.9572,0,0.8856,0.8882,0.8952,0.8978,0.9009,0.9051,0.9082,0.9131,0.9162,0.9225,0.9247,0.93,0.9345,0.9424,0.9475,0.9527,0.9542,0.9548,0.955,0.9537,0.9543,0.9541,0.9544,0.9546,0.9546,0.9546,0.9546,0,0.8859,0.888,0.8923,0.8974,0.901,0.9053,0.9097,0.9117,0.9174,0.9208,0.9259,0.9294,0.9364,0.9417,0.9475,0.9511,0.9538,0.9544,0.955,0.9538,0.9519,0.953,0.9519,0.9544,0.9544,0.9544,0.9544,0.9544,0.8854,0.888,0.8932,0.8979,0.9017,0.9058,0.9089,0.913,0.9173,0.9232,0.9259,0.9311,0.9365,0.9446,0.9481,0.9524,0.9531,0.9539,0.9542,0.9543,0.9541,0.9512,0.9535,0.9535,0.9535,0.9535,0.9535,0,0.8859,0.8895,0.8938,0.8998,0.9035,0.9056,0.9107,0.9137,0.9182,0.9229,0.9273,0.9332,0.9384,0.9438,0.9493,0.9517,0.9531,0.953,0.9529,0.9537,0.9531,0.9521,0.9518,0.9518,0.9518,0.9518,0.9518,0.9518,0.8867,0.8912,0.894,0.9005,0.9041,0.9092,0.9119,0.9157,0.9195,0.926,0.9302,0.9337,0.9387,0.9447,0.9495,0.951,0.9529,0.9524,0.9543,0.9536,0.9537,0.9538,0.9529,0.9528,0.9528,0.9545,0.9545,0.9546]},{"header":{"parameterUnit":"m.s-1","parameterCategory":1,"la1":30.2991,"la2":30.254,"lo1":-89.0895,"lo2":-89.0444,"dy":0.0017,"dx":0.0017,"nx":28,"ny":28,"refTime":"2025-08-14T21:00:00:Z","depth":0,"parameterNumber":3,"parameterNumberName":"V-component_of_WINDS"},"data":[0,0,0,0,0,0,0,0,0,0,0,0,0,0,0,0,0,0,0,0,0,0,0,0,0,0,0,0,0,0,0,0,0,0,0,0,0,0,0,0,0,0,0,0,0,0,0,0,0,0,0,0,0,0,0,0,0,0,2.0524,2.0525,0,2.0561,2.0562,2.0562,2.0567,2.0567,2.0567,2.0566,2.0603,2.0604,2.0605,0,0,0,0,0,0,0,0,0,0,0,0,0,2.0454,2.0456,2.0524,2.0525,2.0525,2.0561,2.0562,2.0562,2.0568,2.0567,2.0567,2.0566,2.0602,2.0604,2.0606,0,0,0,0,0,0,0,0,0,0,0,0,0,2.0487,2.0456,2.0524,2.0532,2.0533,2.0561,2.0562,2.0563,2.0568,2.0567,2.0567,2.0566,2.0602,2.0604,2.0606,2.0628,0,0,2.0612,2.0612,0,0,0,0,0,0,0,0,2.0485,2.049,2.0531,2.0532,2.0533,2.0559,2.0551,2.0584,2.0568,2.0555,2.0566,2.0566,2.0589,2.0592,2.06,2.063,2.0631,2.0612,2.0613,2.0614,2.0614,0,0,0,0,0,0,0,2.0483,2.0488,2.0539,2.0531,2.0533,2.0533,2.0537,2.0557,2.0574,2.0556,2.0556,2.056,2.0589,2.0598,2.0601,2.0632,2.0612,2.0613,2.0615,2.0615,2.0678,2.0678,0,0,0,0,0,0,2.048,2.0486,2.0538,2.054,2.0508,2.0534,2.0539,2.0551,2.0574,2.0577,2.0561,2.0561,2.0595,2.0598,2.0602,2.0627,2.0614,2.0616,2.0617,2.0677,2.0678,2.0678,0,0,0,0,0,0,2.0478,2.0484,2.0536,2.0513,2.052,2.0536,2.055,2.0552,2.0561,2.0578,2.0581,2.0567,2.0595,2.0599,2.0621,2.0628,2.0616,2.0618,2.0677,2.0677,2.0678,2.0679,0,0,0,0,0,0,2.0476,2.0484,2.0494,2.0514,2.0521,2.0556,2.0551,2.0553,2.0565,2.0564,2.0584,2.0587,2.0594,2.0618,2.0623,2.0631,2.062,2.0676,2.0677,2.0678,2.0678,2.0679,2.0681,0,0,0,0,0,2.0474,2.0493,2.0494,2.05,2.0534,2.0556,2.056,2.0569,2.0565,2.0574,2.0584,2.0586,2.0627,2.062,2.0625,2.0634,2.0676,2.0677,2.0678,2.0678,2.0679,2.0681,0,0,0,0,0,0,2.0474,2.0496,2.0497,2.0524,2.0538,2.0557,2.0569,2.0571,2.0587,2.0586,2.0596,2.06,2.0621,2.063,2.0622,2.0655,2.0651,2.0653,2.0649,2.065,2.0651,2.0649,2.0621,0,0,0,0,0,2.0477,2.0494,2.0512,2.0533,2.054,2.0553,2.0563,2.0569,2.0584,2.059,2.0602,2.0615,2.0631,2.0641,2.0657,2.0679,2.0682,2.0688,2.0689,2.069,2.0692,2.0701,2.0703,2.0682,2.0682,2.0682,0,0,2.0483,2.0497,2.0508,2.0533,2.0545,2.0561,2.0558,2.0576,2.0588,2.0592,2.0613,2.0622,2.0638,2.0659,2.0669,2.0667,2.0698,2.0691,2.0692,2.0693,2.0703,2.0705,2.0707,2.0683,2.0683,2.0682,0,0,2.0503,2.0516,2.0534,2.0545,2.0562,2.057,2.0575,2.0593,2.0599,2.0619,2.0622,2.0635,2.0663,2.0673,2.0682,2.0702,2.0703,2.0706,2.0713,2.0722,2.0724,2.0725,2.0731,2.0733,2.0708,2.0708,2.0708,0,2.0508,2.0534,2.0543,2.0559,2.0569,2.0574,2.059,2.0601,2.0622,2.0629,2.0626,2.0659,2.067,2.0692,2.0697,2.0704,2.0708,2.0704,2.0723,2.0725,2.0726,2.0731,2.0733,2.0708,2.0708,2.0708,2.0708,0,2.0538,2.0555,2.0567,2.0587,2.0599,2.0616,2.0625,2.0636,2.0639,2.0647,2.0666,2.0679,2.0696,2.0702,2.0706,2.0724,2.0722,2.0721,2.0717,2.0728,2.0733,2.0735,2.0709,2.0708,2.0708,2.0708,0,0,2.056,2.0583,2.0587,2.0595,2.0613,2.0626,2.0641,2.0658,2.0665,2.0679,2.0691,2.0713,2.0711,2.0721,2.0726,2.0734,2.0746,2.0732,2.0733,2.0733,2.0764,2.0764,2.0766,2.0747,2.0748,2.0748,2.0762,0,2.058,2.0609,2.0616,2.064,2.0655,2.0657,2.0671,2.0682,2.0689,2.0701,2.0709,2.0723,2.0721,2.0727,2.0735,2.0743,2.0752,2.0742,2.0757,2.0758,2.0752,2.0769,2.077,2.0783,2.0764,2.0765,2.0765,0,2.0608,2.0622,2.0647,2.0661,2.0667,2.0679,2.0693,2.0705,2.0717,2.0721,2.0731,2.0734,2.0749,2.0743,2.0762,2.0755,2.0761,2.0766,2.0766,2.0768,2.0762,2.077,2.0787,2.0789,2.0768,2.0768,2.0768,0,2.0619,2.0644,2.0661,2.0668,2.0685,2.0693,2.07,2.0712,2.072,2.0732,2.0737,2.0751,2.0758,2.0767,2.0773,2.0769,2.0791,2.0787,2.0793,2.0793,2.0798,2.0797,2.0816,2.0803,2.0803,2.0803,2.0803,0,2.064,2.0655,2.0666,2.0677,2.0692,2.07,2.0715,2.0722,2.0732,2.0743,2.0746,2.0756,2.0764,2.0774,2.0779,2.0793,2.0796,2.0799,2.08,2.0798,2.0798,2.0802,2.0801,2.0804,2.0804,2.0804,2.0803,0,2.0655,2.0663,2.0682,2.0696,2.0699,2.071,2.0721,2.0731,2.0737,2.0751,2.0754,2.0764,2.0776,2.0783,2.0799,2.0802,2.0816,2.0818,2.0812,2.0813,2.0818,2.0817,2.084,2.0842,2.0829,2.0829,2.0829,0,2.0668,2.0679,2.0693,2.0701,2.0708,2.072,2.0728,2.0735,2.0743,2.0756,2.0764,2.0776,2.0786,2.0806,2.0813,2.0825,2.0825,2.0832,2.0827,2.0824,2.0824,2.0823,2.0823,2.0833,2.0833,2.0833,2.0833,0,2.0688,2.0691,2.0703,2.0715,2.0725,2.0735,2.0745,2.0751,2.0759,2.0767,2.078,2.0788,2.0803,2.0815,2.0826,2.0832,2.0833,2.0835,2.0837,2.0835,2.0831,2.0831,2.0814,2.0834,2.0834,2.0834,2.0834,2.0834,2.0701,2.071,2.0721,2.0733,2.0741,2.075,2.0759,2.0766,2.0776,2.0789,2.0792,2.0805,2.0814,2.083,2.0836,2.0845,2.0844,2.0847,2.0848,2.0848,2.0847,2.083,2.0847,2.0847,2.0847,2.0847,2.0847,0,2.072,2.0727,2.0738,2.0752,2.0761,2.0761,2.0771,2.0779,2.079,2.0799,2.0808,2.0821,2.0832,2.084,2.085,2.0856,2.0857,2.0858,2.0858,2.0859,2.0849,2.0845,2.0858,2.0858,2.0858,2.0858,2.0858,2.0858,2.0731,2.0746,2.0749,2.0767,2.0774,2.0786,2.0792,2.0799,2.0806,2.0821,2.0829,2.0834,2.0842,2.0853,2.0862,2.0864,2.0867,2.0869,2.0871,2.0861,2.086,2.0859,2.0856,2.087,2.087,2.088,2.088,2.088]}]]